VA3PPY Weather Reports


time (UTC)temp
C
wind
direction
speed
KPH
gust
KPH
rain 1hr
cm
rain 24hr
cm
rain mn
cm
humidity
%
barometer
mb
20260506224514 6 330 3.2 8.0 0.00 0.03 0.00 69 1012.5
20260506223012 6 314 3.2 12.9 0.00 0.03 0.00 64 1012.4
20260506221512 7 359 1.6 11.3 0.00 0.03 0.00 67 1012.4
20260506220012 7 360 0.0 8.0 0.00 0.03 0.00 65 1012.5
20260506214518 6 345 1.6 12.9 0.00 0.03 0.00 64 1012.3
20260506213012 7 29 8.0 14.5 0.00 0.03 0.00 66 1012.4
20260506211512 6 330 4.8 14.5 0.00 0.03 0.00 65 1012.0
20260506210014 7 358 1.6 12.9 0.00 0.03 0.00 69 1012.3
20260506204514 6 26 6.4 12.9 0.00 0.03 0.00 68 1012.2
20260506203014 6 2 4.8 12.9 0.00 0.03 0.00 68 1012.2
20260506201518 6 56 3.2 9.7 0.00 0.03 0.00 69 1012.3
20260506200015 6 22 3.2 9.7 0.00 0.03 0.00 68 1012.5
20260506194513 6 4 4.8 16.1 0.00 0.03 0.00 71 1012.6
20260506193013 6 358 1.6 9.7 0.00 0.03 0.00 74 1012.5
20260506191513 4 359 3.2 12.9 0.00 0.03 0.00 72 1012.6
20260506190012 5 3 6.4 14.5 0.00 0.03 0.00 71 1012.8
20260506184521 5 323 6.4 12.9 0.00 0.03 0.00 72 1013.0
20260506183014 5 1 4.8 16.1 0.00 0.03 0.00 72 1013.3
20260506181513 4 314 6.4 17.7 0.00 0.03 0.00 74 1013.2
20260506180013 4 330 6.4 14.5 0.00 0.03 0.00 75 1013.0
20260506174513 4 351 4.8 14.5 0.00 0.03 0.00 74 1012.8
20260506173013 4 290 6.4 16.1 0.00 0.03 0.00 74 1013.0
20260506171513 5 315 4.8 16.1 0.00 0.03 0.00 74 1013.0
20260506170014 5 323 4.8 14.5 0.00 0.03 0.00 73 1013.0
20260506164514 6 281 4.8 14.5 0.00 0.03 0.00 73 1012.8
20260506163014 5 296 3.2 17.7 0.00 0.03 0.00 75 1012.8
20260506161514 5 328 4.8 14.5 0.00 0.03 0.00 76 1012.7
20260506160015 5 311 6.4 22.5 0.00 0.03 0.00 77 1012.6
20260506154513 5 241 3.2 17.7 0.00 0.03 0.00 78 1012.5
20260506153013 5 356 6.4 17.7 0.00 0.03 0.00 77 1012.4
20260506151514 5 297 6.4 19.3 0.00 0.03 0.00 77 1011.9
20260506150014 5 315 8.0 16.1 0.00 0.03 0.00 75 1011.8
20260506144527 5 288 4.8 19.3 0.00 0.03 0.00 76 1011.4
20260506143014 5 311 9.7 27.4 0.00 0.03 0.00 76 1011.1
20260506141514 5 342 8.0 24.1 0.00 0.03 0.00 77 1010.7
20260506140014 5 290 9.7 24.1 0.00 0.03 0.00 78 1010.6
20260506134514 5 309 8.0 20.9 0.00 0.03 0.00 78 1010.4
20260506133014 5 307 6.4 25.7 0.00 0.03 0.00 79 1010.3
20260506131514 5 305 6.4 20.9 0.00 0.03 0.00 79 1010.2
20260506130014 4 300 8.0 19.3 0.00 0.03 0.00 78 1010.1
20260506124514 4 296 6.4 25.7 0.00 0.03 0.00 80 1009.9
20260506123019 4 290 6.4 22.5 0.00 0.03 0.00 82 1009.7
20260506121515 3 283 9.7 24.1 0.00 0.03 0.00 82 1009.6
20260506120024 4 359 8.0 24.1 0.00 0.03 0.00 84 1009.5
20260506114519 4 328 6.4 17.7 0.00 0.03 0.00 86 1009.1
20260506113015 4 348 3.2 17.7 0.00 0.03 0.00 87 1008.8
20260506111514 4 329 4.8 17.7 0.00 0.03 0.00 88 1008.6
20260506110015 3 360 8.0 17.7 0.00 0.03 0.00 88 1008.1
20260506104523 3 307 8.0 17.7 0.00 0.03 0.00 88 1007.5
20260506103016 3 6 4.8 16.1 0.00 0.03 0.00 88 1007.3
20260506101515 3 317 6.4 17.7 0.00 0.03 0.00 88 1007.5
20260506100019 3 321 6.4 16.1 0.00 0.03 0.00 88 1007.3
20260506094515 4 335 6.4 19.3 0.00 0.03 0.00 87 1007.4
20260506093020 4 300 3.2 16.1 0.00 0.03 0.00 87 1007.2
20260506091515 4 292 6.4 17.7 0.00 0.03 0.00 86 1007.1
20260506090015 4 304 6.4 19.3 0.00 0.03 0.00 87 1007.1
20260506084515 5 316 4.8 14.5 0.00 0.03 0.00 88 1007.2
20260506083021 5 289 1.6 14.5 0.00 0.03 0.00 89 1007.2
20260506081517 5 240 0.0 4.8 0.00 0.03 0.00 89 1006.9
20260506073015 6 231 0.0 4.8 0.00 0.03 0.00 87 1006.8
20260506071518 6 231 0.0 6.4 0.00 0.03 0.00 86 1006.8
20260506061516 8 129 0.0 0.0 0.00 0.03 0.00 78 1006.3
20260506044517 8 128 0.0 3.2 0.00 0.03 0.00 87 1006.8
20260506043016 9 128 0.0 1.6 0.00 0.03 0.00 88 1007.0
20260506041516 9 128 0.0 4.8 0.00 0.03 0.00 88 1006.9
20260506040016 9 128 1.6 6.4 0.00 0.03 0.00 88 1007.0
20260506034516 9 128 0.0 6.4 0.00 0.03 0.03 87 1006.7
20260506033025 9 128 0.0 6.4 0.00 0.03 0.03 87 1006.9
20260506031529 9 93 0.0 3.2 0.00 0.03 0.03 87 1006.9
20260506030018 9 93 1.6 4.8 0.00 0.03 0.03 87 1007.1
20260506024525 10 93 1.6 4.8 0.00 0.03 0.03 86 1007.0
20260506023017 10 93 0.0 3.2 0.00 0.03 0.03 87 1006.5
20260506021518 10 93 0.0 1.6 0.00 0.03 0.03 86 1006.8
20260506020017 10 93 0.0 0.0 0.00 0.03 0.03 86 1006.7
20260506014516 10 93 0.0 0.0 0.00 0.03 0.03 86 1006.7
20260506013020 9 93 0.0 4.8 0.00 0.03 0.03 86 1006.7
20260506011519 10 49 0.0 0.0 0.00 0.03 0.03 86 1006.5
20260506010043 9 49 0.0 0.0 0.00 0.03 0.03 85 1006.4
20260506004517 10 49 0.0 0.0 0.00 0.03 0.03 84 1006.3
20260506003017 10 49 0.0 0.0 0.03 0.03 0.03 84 1006.2
20260506001517 10 49 0.0 0.0 0.03 0.03 0.03 83 1006.2
20260506000018 10 49 0.0 0.0 0.03 0.03 0.03 82 1005.9
20260505234517 10 49 0.0 1.6 0.00 0.00 0.00 82 1005.8
20260505233018 10 49 0.0 0.0 0.00 0.00 0.00 82 1005.9
20260505231518 10 49 0.0 1.6 0.00 0.00 0.00 81 1006.0
20260505230025 10 49 0.0 3.2 0.00 0.00 0.00 81 1005.9